This is the latest recevied weather packets stored in our database for station/object N0QV. If no packets are shown the sender has not sent any weather packets the latest 1 day(s).
| Time | Temp. | Humidity | Pressure | Rain* | Wind** | Luminosity | Snow |
|---|---|---|---|---|---|---|---|
| 1778093477 | 7.78° C | 46% | 1017.5 hPa | 0 mm | - | 875 W/m² | - |
| 1778091962 | 7.78° C | 46% | 1017.6 hPa | 0 mm | - | 518 W/m² | - |
| 1778090750 | 7.22° C | 46% | 1017.9 hPa | 0 mm | - | 264 W/m² | - |
| 1778090143 | 7.22° C | 48% | 1017.8 hPa | 0 mm | - | 261 W/m² | - |
| 1778088932 | 6.11° C | 50% | 1018 hPa | 0 mm | - | 133 W/m² | - |
| 1778088022 | 6.67° C | 48% | 1017.9 hPa | 0 mm | - | 202 W/m² | - |
| 1778086206 | 5.56° C | 49% | 1018.2 hPa | 0 mm | - | 216 W/m² | - |
| 1778083478 | 5.56° C | 51% | 1018 hPa | 0 mm | - | 211 W/m² | - |
| 1778083175 | 5.56° C | 52% | 1018.1 hPa | 0 mm | - | 209 W/m² | - |
| 1778082873 | 5.56° C | 51% | 1018.2 hPa | 0 mm | - | 203 W/m² | - |
| 1778081754 | 5.56° C | 53% | 1018.2 hPa | 0 mm | - | 183 W/m² | - |
| 1778079937 | 5° C | 55% | 1018.1 hPa | 0 mm | - | 145 W/m² | - |
| 1778077516 | 4.44° C | 63% | 1017.9 hPa | 0 mm | - | 129 W/m² | - |
| 1778077214 | 4.44° C | 62% | 1017.9 hPa | 0 mm | - | 106 W/m² | - |
| 1778076004 | 3.89° C | 63% | 1017.9 hPa | 0 mm | - | 102 W/m² | - |
| 1778072366 | 2.22° C | 67% | 1017.7 hPa | 0 mm | - | 38 W/m² | - |
| 1778071459 | 2.22° C | 67% | 1017.6 hPa | 0 mm | - | 33 W/m² | - |
| 1778069038 | 0.56° C | 72% | 1017 hPa | 0 mm | - | 28 W/m² | - |
| 1778068131 | 0° C | 75% | 1016.3 hPa | 0 mm | - | 25 W/m² | - |
| 1778067828 | 0° C | 77% | 1016.2 hPa | 0 mm | - | 23 W/m² | - |
| 1778067224 | -1.11° C | 80% | 1016.2 hPa | 0 mm | - | 16 W/m² | - |
| 1778066618 | -1.11° C | 81% | 1016.3 hPa | 0 mm | - | 12 W/m² | - |
| 1778066315 | -1.67° C | 81% | 1016.1 hPa | 0 mm | - | 10 W/m² | - |
| 1778064801 | -1.67° C | 79% | 1015.7 hPa | 0 mm | - | 0 W/m² | - |
| 1778064498 | -1.67° C | 80% | 1015.7 hPa | 0 mm | - | 0 W/m² | - |
* Rain latest hour (hover to see other rain measurements)
** Current wind speed in m/s (hover to see current wind gust speed)